Regional Weather Roundup
Issued by NWS

Home | Current Version | Previous Version | Graphics & Text | Print | Product List | Glossary On
Versions: 1 2 3 4 5 6 7 8 9 10 11 12 13 14 15 16 17 18 19 20 21 22 23 24 25 26 27 28 29 30 31 32 33 34 35 36 37 38 39 40 41 42 43 44 45 46 47 48 49 50
000
ASUS43 KFSD 301310
RWRSD

WEATHER ROUNDUP FOR SOUTH DAKOTA
NATIONAL WEATHER SERVICE SIOUX FALLS SD
800 AM CDT FRI SEP 30 2016

NOTE: "FAIR" INDICATES FEW OR NO CLOUDS BELOW 12,000 FEET WITH NO
SIGNIFICANT WEATHER AND/OR OBSTRUCTIONS TO VISIBILITY.


SDZ001>005-009-010-012>017-301400-
NORTHWEST AND NORTH CENTRAL SOUTH DAKOTA

CITY           SKY/WX    TMP DP  RH WIND       PRES   REMARKS
BUFFALO          N/A     57  43  59 S12       30.01F
FAITH            N/A     52  42  69 SE20      30.10S
MOBRIDGE       PTCLDY    57  46  66 S22G29    30.16F
$$

SDZ012>016-024>037-041>051-057-063-072>074-301400-
SOUTHWEST AND SOUTH CENTRAL SOUTH DAKOTA

CITY           SKY/WX    TMP DP  RH WIND       PRES   REMARKS
RAPID CTY ARPT CLOUDY    54  43  66 SE7       30.09F
PIERRE         PTCLDY    50  44  80 SE13      30.20S
CUSTER         CLEAR     52  41  66 W6        30.20S
ELLSWORTH AFB  MOCLDY    57  43  60 S14       30.08S
PHILIP         PTCLDY    50  43  77 E10       30.15S
PINE RIDGE     MOCLDY    53  42  66 S14G21    30.15F
WINNER         FAIR      51  45  79 S12       30.24S
$$

SDZ004>011-016>023-039-040-301400-
NORTHEAST SOUTH DAKOTA

CITY           SKY/WX    TMP DP  RH WIND       PRES   REMARKS
ABERDEEN       CLOUDY    46  44  93 SE10      30.28F
WATERTOWN      CLEAR     49  45  86 SE7       30.32S
BROOKINGS      CLEAR     40  39  97 CALM      30.33S FOG
SISSETON         N/A     43  42  97 S5        30.33S
$$

SDZ017-020-022-023-036>040-048>070-301400-
SOUTHEAST SOUTH DAKOTA

CITY           SKY/WX    TMP DP  RH WIND       PRES   REMARKS
SIOUX FALLS    PTCLDY    44  42  93 NE3       30.34R
HURON          CLOUDY    46  44  93 SE9       30.29S
CHAMBERLAIN    CLOUDY    47  46  98 SE8       30.26S
MITCHELL       CLEAR     46  44  93 SE6       30.31S
YANKTON        CLEAR     43  39  87 NE3       30.31R
$$

ABBREVIATIONS USED IN REMARKS
   TC - TEMPERATURE IN CELSIUS
  WCI - WIND CHILL INDEX
   HX - HEAT INDEX
  VSB - VISIBILITY




USA.gov is the U.S. government's official web portal to all federal, state and local government web resources and services.